Location: Demmingen
(48.6757°N, 10.4375°E)
Time: 02:38:32
(UTC+00:00)

USA 267 - Pass Details

Date: 23 May 2024
Orbit: 1100 x 1107 km, 123.0° (Epoch: 21 May)

Event Time Altitude Azimuth Distance (km) Brightness Sun altitude
Rises 01:57:53 0° 67° (ENE) 3,921 7.3 -11.7°
Reaches altitude 10° 02:00:28 10° 62° (ENE) 2,962 6.7 -11.5°
Maximum altitude 02:06:35 45° 352° (N) 1,470 4.3 -10.8°
Drops below altitude 10° 02:12:43 10° 283° (WNW) 2,960 5.2 -10.2°
Sets 02:15:18 0° 277° (W) 3,918 5.8 -9.9°
